Weather History for Point Pleasant, WV

Change the Weather History Date:

Sunday, November 27, 2011

  Actual Average (KHTS) Record (KHTS)
Temperature  
Mean Temperature 52 °F 42 °F  
Max Temperature 59 °F 52 °F 81 °F (1990)
Min Temperature 44 °F 34 °F 8 °F (1930)
Degree Days  
Heating Degree Days 14 22  
Month to date heating degree days 479  
Since 1 July heating degree days 818  
Cooling Degree Days 0 0  
Month to date cooling degree days 0  
Year to date cooling degree days 1132  
Growing Degree Days 2 (Base 50)    
Moisture  
Dew Point 48 °F    
Average Humidity 82    
Maximum Humidity 100    
Minimum Humidity 62    
Precipitation  
Precipitation 0.00 in 0.12 in 2.24 in (1973)
Month to date precipitation 3.09  
Year to date precipitation 38.93  
Snow  
Snow 0.00 in - - ()
Month to date snowfall  
Since 1 September snowfall  
Snow Depth -    
Sea Level Pressure  
Sea Level Pressure 29.96 in    
Wind  
Wind Speed 1 mph (SE)    
Max Wind Speed 5 mph    
Max Gust Speed -    
Visibility 8 miles    
Events Rain    
T = Trace of Precipitation, MM = Missing Value Source: NWS Daily Summary

Daily Weather History Graph

Daily Weather History Graph

Search for Another Location

Airport:

Trip Planner

Search our weather history database for the weather conditions in past years. The results will help you decide how hot, cold, wet, or windy it might be!

Date:

Astronomy

Nov. 27, 2011 Rise Set
Actual Time 7:23 AM EST 5:07 PM EST
Civil Twilight 6:54 AM EST 5:37 PM EST
Nautical Twilight 6:21 AM EST 6:10 PM EST
Astronomical Twilight 5:49 AM EST 6:41 PM EST
Moon 9:47 AM EST (11/27) 7:45 PM EST (11/27)
Length of Visible Light 10h 42m
Length of Day
9h 44m
Waxing Crescent, 8% of the Moon is Illuminated
Nov 27
Waxing Crescent
Dec 2
First Quarter
Dec 10
Full
Dec 17
Last Quarter
Dec 24
New

Hourly Weather History & Observations

Time (EST) Temp. Windchill Dew Point Humidity Pressure Visibility Wind Dir Wind Speed Gust Speed Precip Events Conditions
12:15 AM 44.6 °F 43.1 °F 39.2 °F 81% 30.04 in 10.0 mi SSE 3.5 mph - N/A   Clear
12:35 AM 50.0 °F - 39.2 °F 66% 30.04 in 10.0 mi Calm Calm - N/A   Clear
12:55 AM 51.8 °F - 39.2 °F 62% 30.03 in 10.0 mi SE 3.5 mph - N/A   Clear
1:15 AM 51.8 °F - 39.2 °F 62% 30.02 in 10.0 mi Calm Calm - N/A   Clear
1:35 AM 51.8 °F - 39.2 °F 62% 30.02 in 10.0 mi Calm Calm - N/A   Clear
1:55 AM 53.6 °F - 41.0 °F 62% 30.02 in 10.0 mi Calm Calm - N/A   Clear
2:15 AM 50.0 °F - 41.0 °F 71% 30.02 in 10.0 mi Calm Calm - N/A   Clear
2:35 AM 51.8 °F - 41.0 °F 67% 30.01 in 10.0 mi Calm Calm - N/A   Clear
2:55 AM 51.8 °F - 41.0 °F 67% 30.01 in 10.0 mi Calm Calm - N/A   Clear
3:15 AM 46.4 °F - 41.0 °F 81% 30.00 in 10.0 mi Calm Calm - N/A   Clear
3:35 AM 48.2 °F - 41.0 °F 76% 29.99 in 10.0 mi Calm Calm - N/A   Clear
3:55 AM 50.0 °F - 41.0 °F 71% 29.98 in 10.0 mi Calm Calm - N/A   Clear
4:15 AM 51.8 °F - 42.8 °F 71% 29.98 in 10.0 mi Calm Calm - N/A   Clear
4:35 AM 53.6 °F - 42.8 °F 67% 29.97 in 10.0 mi Calm Calm - N/A   Clear
4:55 AM 53.6 °F - 42.8 °F 67% 29.97 in 10.0 mi South 3.5 mph - N/A   Clear
5:15 AM 53.6 °F - 42.8 °F 67% 29.97 in 10.0 mi SSE 3.5 mph - N/A   Scattered Clouds
5:35 AM 53.6 °F - 42.8 °F 67% 29.97 in 10.0 mi SSE 3.5 mph - N/A   Scattered Clouds
6:15 AM 55.4 °F - 42.8 °F 63% 29.96 in 10.0 mi Calm Calm - N/A   Scattered Clouds
6:35 AM 55.4 °F - 44.6 °F 67% 29.96 in 10.0 mi Calm Calm - N/A   Scattered Clouds
6:55 AM 53.6 °F - 44.6 °F 72% 29.97 in 10.0 mi Calm Calm - N/A   Mostly Cloudy
7:15 AM 55.4 °F - 44.6 °F 67% 29.97 in 10.0 mi SE 3.5 mph - N/A   Scattered Clouds
7:35 AM 53.6 °F - 44.6 °F 72% 29.97 in 10.0 mi East 3.5 mph - N/A   Clear
7:55 AM 50.0 °F - 44.6 °F 82% 29.97 in 10.0 mi Calm Calm - N/A   Clear
8:15 AM 50.0 °F - 44.6 °F 82% 29.97 in 10.0 mi Calm Calm - N/A   Clear
8:35 AM 51.8 °F - 44.6 °F 76% 29.97 in 10.0 mi Calm Calm - N/A   Clear
8:55 AM 53.6 °F - 46.4 °F 77% 29.97 in 10.0 mi Calm Calm - N/A Rain Light Rain
9:35 AM 51.8 °F - 50.0 °F 94% 29.96 in 10.0 mi East 4.6 mph - N/A Rain Light Rain
10:15 AM 53.6 °F - 48.2 °F 82% 29.96 in 7.0 mi East 3.5 mph - N/A Rain Light Rain
10:35 AM 55.4 °F - 50.0 °F 82% 29.95 in 10.0 mi East 3.5 mph - N/A   Scattered Clouds
10:55 AM 55.4 °F - 50.0 °F 82% 29.94 in 10.0 mi ENE 3.5 mph - N/A   Scattered Clouds
11:15 AM 55.4 °F - 50.0 °F 82% 29.94 in 10.0 mi Calm Calm - N/A   Scattered Clouds
11:55 AM 59.0 °F - 50.0 °F 72% 29.93 in 10.0 mi East 4.6 mph - N/A   Clear
12:15 PM 59.0 °F - 48.2 °F 67% 29.93 in 10.0 mi Calm Calm - N/A   Clear
12:55 PM 59.0 °F - 50.0 °F 72% 29.92 in 7.0 mi South 3.5 mph - N/A Rain Light Rain
1:15 PM 59.0 °F - 51.8 °F 77% 29.92 in 10.0 mi Calm Calm - N/A Rain Light Rain
1:35 PM 59.0 °F - 51.8 °F 77% 29.92 in 10.0 mi Calm Calm - N/A Rain Light Rain
1:55 PM 59.0 °F - 51.8 °F 77% 29.92 in 7.0 mi SSE 4.6 mph - N/A Rain Light Rain
2:15 PM 57.2 °F - 53.6 °F 88% 29.91 in 10.0 mi Calm Calm - N/A Rain Light Rain
2:35 PM 57.2 °F - 53.6 °F 88% 29.91 in 10.0 mi Calm Calm - N/A   Mostly Cloudy
2:55 PM 57.2 °F - 53.6 °F 88% 29.91 in 10.0 mi Calm Calm - N/A   Mostly Cloudy
3:15 PM 55.4 °F - 53.6 °F 94% 29.92 in 10.0 mi Calm Calm - N/A Rain Light Rain
3:35 PM 55.4 °F - 53.6 °F 94% 29.92 in 7.0 mi Calm Calm - N/A Rain Light Rain
3:55 PM 55.4 °F - 53.6 °F 94% 29.92 in 10.0 mi Calm Calm - N/A Rain Light Rain
4:15 PM 55.4 °F - 53.6 °F 94% 29.92 in 7.0 mi Calm Calm - N/A Rain Light Rain
4:35 PM 55.4 °F - 53.6 °F 94% 29.92 in 7.0 mi Calm Calm - N/A Rain Light Rain
4:55 PM 53.6 °F - 53.6 °F 100% 29.93 in 7.0 mi Calm Calm - N/A Rain Light Rain
5:15 PM 53.6 °F - 53.6 °F 100% 29.92 in 5.0 mi Calm Calm - N/A Rain Light Rain
5:35 PM 53.6 °F - 53.6 °F 100% 29.93 in 4.0 mi Calm Calm - N/A Rain Light Rain
5:55 PM 53.6 °F - 53.6 °F 100% 29.94 in 1.8 mi Calm Calm - N/A Rain Light Rain
6:15 PM 53.6 °F - 53.6 °F 100% 29.94 in 7.0 mi Calm Calm - N/A Rain Light Rain
6:35 PM 53.6 °F - 53.6 °F 100% 29.94 in 4.0 mi Calm Calm - N/A Rain Light Rain
6:55 PM 53.6 °F - 53.6 °F 100% 29.94 in 3.0 mi Calm Calm - N/A Rain Light Rain
7:15 PM 53.6 °F - 53.6 °F 100% 29.93 in 5.0 mi Calm Calm - N/A Rain Light Rain
7:35 PM 53.6 °F - 53.6 °F 100% 29.94 in 7.0 mi Calm Calm - N/A Rain Light Rain
7:55 PM 53.6 °F - 53.6 °F 100% 29.94 in 10.0 mi Calm Calm - N/A   Overcast
8:15 PM 53.6 °F - 53.6 °F 100% 29.94 in 4.0 mi Calm Calm - N/A Rain Light Rain
8:35 PM 51.8 °F - 51.8 °F 100% 29.93 in 2.0 mi Calm Calm - N/A Rain Rain
8:55 PM 51.8 °F - 51.8 °F 100% 29.94 in 1.0 mi Calm Calm - N/A   Overcast
9:15 PM 51.8 °F - 51.8 °F 100% 29.93 in 4.0 mi Calm Calm - N/A   Overcast
9:35 PM 51.8 °F - 51.8 °F 100% 29.93 in 2.5 mi Calm Calm - N/A Rain Light Rain
9:55 PM 51.8 °F - 51.8 °F 100% 29.94 in 3.0 mi Calm Calm - N/A Rain Light Rain
10:15 PM 51.8 °F - 51.8 °F 100% 29.94 in 1.5 mi Calm Calm - N/A Rain Light Rain
10:35 PM 51.8 °F - 51.8 °F 100% 29.95 in 2.0 mi Calm Calm - N/A Rain Light Rain
10:55 PM 51.8 °F - 51.8 °F 100% 29.95 in 1.2 mi Calm Calm - N/A Rain Light Rain
11:15 PM 51.8 °F - 51.8 °F 100% 29.94 in 1.2 mi Calm Calm - N/A Rain Light Rain
11:35 PM 51.8 °F - 51.8 °F 100% 29.94 in 1.0 mi Calm Calm - N/A Rain Light Rain
11:55 PM 51.8 °F - 51.8 °F 100% 29.94 in 1.2 mi Calm Calm - N/A   Light Drizzle